When you browse on this site, cookies collect data to enhance your experience and personalize the content and advertising you see.
Visit our Privacy Policy to learn more. By continuing to use the site, you agree to this use of cookies and data.
  • In Hungary
  • List of Countries
  • For 7 days
  • Water Temperature
  • Satellite Maps
  • Weather Map
  • News
  • Weather Widgets
  • user-avatar
    Login

    Hourly Weather Trudovoy

    Today, 24 January, Thursday

    Time Temperature Precipitation Wind Pressure Humidity
    00:00 -21°C° 0 mm 2 mps 771 mmHg 91%
    01:00 -20°C° 0 mm 2 mps 771 mmHg 91%
    02:00 -22°C° 0 mm 3 mps 771 mmHg 91%
    03:00 -21°C° 0 mm 2 mps 770 mmHg 92%
    04:00 -22°C° 0.1 mm 3 mps 770 mmHg 93%
    05:00 -21°C° 0.1 mm 3 mps 769 mmHg 94%
    06:00 -22°C° 0.1 mm 4 mps 769 mmHg 94%
    07:00 -21°C° 0.6 mm 5 mps 768 mmHg 95%
    08:00 -20°C° 0.6 mm 5 mps 768 mmHg 96%
    09:00 -20°C° 0 mm 6 mps 767 mmHg 96%
    10:00 -20°C° 1 mm 7 mps 766 mmHg 96%
    11:00 -19°C° 1 mm 7 mps 766 mmHg 95%
    12:00 -18°C° 1 mm 8 mps 765 mmHg 95%
    13:00 -17°C° 0.7 mm 8 mps 764 mmHg 94%
    14:00 -16°C° 0.7 mm 8 mps 763 mmHg 94%
    15:00 -16°C° 0.7 mm 8 mps 762 mmHg 94%
    16:00 -14°C° 0.8 mm 7 mps 761 mmHg 94%
    17:00 -14°C° 0.8 mm 7 mps 761 mmHg 94%
    18:00 -13°C° 0.8 mm 7 mps 760 mmHg 94%
    19:00 -11°C° 0.9 mm 6 mps 759 mmHg 94%
    20:00 -10°C° 0.9 mm 6 mps 758 mmHg 95%
    21:00 -9°C° 0.9 mm 6 mps 758 mmHg 95%
    22:00 -8°C° 0.9 mm 6 mps 757 mmHg 95%
    23:00 -7°C° 0.9 mm 5 mps 757 mmHg 95%

    Tomorrow, 25 January, Friday

    Time Temperature Precipitation Wind Pressure Humidity
    00:00 -6°C° 0.9 mm 5 mps 756 mmHg 95%
    01:00 -4°C° 0.3 mm 4 mps 756 mmHg 95%
    02:00 -2°C° 0.3 mm 3 mps 756 mmHg 95%
    03:00 -1°C° 0.3 mm 2 mps 756 mmHg 95%
    04:00 -4°C° 0 mm 4 mps 757 mmHg 93%
    05:00 -6°C° 0 mm 5 mps 758 mmHg 91%
    06:00 -9°C° 0 mm 6 mps 759 mmHg 89%
    07:00 -11°C° 0 mm 5 mps 760 mmHg 89%
    08:00 -13°C° 0 mm 5 mps 761 mmHg 89%
    09:00 -15°C° 0 mm 5 mps 762 mmHg 89%
    10:00 -15°C° 0 mm 4 mps 763 mmHg 88%
    11:00 -15°C° 0 mm 4 mps 764 mmHg 88%
    12:00 -15°C° 0 mm 4 mps 765 mmHg 87%
    13:00 -15°C° 0 mm 4 mps 765 mmHg 88%
    14:00 -15°C° 0 mm 3 mps 766 mmHg 88%
    15:00 -15°C° 0 mm 3 mps 766 mmHg 88%
    16:00 -16°C° 0 mm 3 mps 767 mmHg 89%
    17:00 -17°C° 0 mm 3 mps 768 mmHg 89%
    18:00 -18°C° 0 mm 3 mps 769 mmHg 89%
    19:00 -19°C° 0 mm 3 mps 769 mmHg 89%
    20:00 -19°C° 0 mm 3 mps 770 mmHg 89%
    21:00 -21°C° 0 mm 3 mps 770 mmHg 89%
    22:00 -21°C° 0 mm 3 mps 770 mmHg 89%
    23:00 -19°C° 0 mm 2 mps 771 mmHg 90%

    Day after tomorrow, 26 January, Saturday

    Time Temperature Precipitation Wind Pressure Humidity
    00:00 -20°C° 0 mm 2 mps 771 mmHg 90%
    01:00 -20°C° 0 mm 2 mps 771 mmHg 91%
    02:00 -21°C° 0 mm 2 mps 771 mmHg 92%
    03:00 -21°C° 0 mm 2 mps 771 mmHg 94%
    04:00 -21°C° 0 mm 2 mps 771 mmHg 94%
    05:00 -21°C° 0 mm 2 mps 771 mmHg 95%
    06:00 -23°C° 0 mm 2 mps 771 mmHg 96%
    07:00 -21°C° 0 mm 2 mps 771 mmHg 95%
    08:00 -23°C° 0 mm 3 mps 771 mmHg 95%
    09:00 -23°C° 0 mm 3 mps 771 mmHg 94%
    10:00 -22°C° 0 mm 3 mps 771 mmHg 91%
    11:00 -21°C° 0 mm 3 mps 771 mmHg 88%
    12:00 -20°C° 0 mm 4 mps 771 mmHg 86%
    13:00 -19°C° 0 mm 4 mps 770 mmHg 86%
    14:00 -19°C° 0 mm 4 mps 770 mmHg 86%
    15:00 -19°C° 0 mm 4 mps 769 mmHg 86%
    16:00 -19°C° 0 mm 4 mps 769 mmHg 86%
    17:00 -20°C° 0 mm 4 mps 768 mmHg 86%
    18:00 -20°C° 0 mm 4 mps 768 mmHg 86%
    19:00 -20°C° 0 mm 4 mps 768 mmHg 86%
    20:00 -20°C° 0 mm 4 mps 767 mmHg 85%
    21:00 -20°C° 0 mm 4 mps 767 mmHg 84%
    22:00 -19°C° 0 mm 4 mps 767 mmHg 85%
    23:00 -19°C° 0 mm 4 mps 766 mmHg 85%

    27 January, Sunday

    Time Temperature Precipitation Wind Pressure Humidity
    00:00 -19°C° 0 mm 4 mps 766 mmHg 85%
    01:00 -19°C° 0 mm 4 mps 765 mmHg 88%
    02:00 -19°C° 0 mm 4 mps 765 mmHg 90%
    03:00 -18°C° 0 mm 4 mps 764 mmHg 93%
    04:00 -18°C° 0 mm 4 mps 764 mmHg 94%
    05:00 -17°C° 0 mm 4 mps 763 mmHg 95%
    06:00 -16°C° 0 mm 4 mps 763 mmHg 96%
    07:00 -15°C° 0 mm 5 mps 762 mmHg 96%
    08:00 -14°C° 0 mm 5 mps 762 mmHg 95%
    09:00 -14°C° 0 mm 5 mps 762 mmHg 95%
    10:00 -13°C° 0 mm 5 mps 761 mmHg 94%
    11:00 -12°C° 0 mm 5 mps 761 mmHg 93%
    12:00 -11°C° 0 mm 5 mps 760 mmHg 92%
    13:00 -11°C° 0 mm 5 mps 760 mmHg 92%
    14:00 -10°C° 0 mm 6 mps 759 mmHg 93%
    15:00 -10°C° 0 mm 6 mps 758 mmHg 93%
    16:00 -10°C° 0 mm 6 mps 758 mmHg 93%
    17:00 -10°C° 0 mm 6 mps 758 mmHg 93%
    18:00 -10°C° 0 mm 6 mps 758 mmHg 93%
    19:00 -9°C° 0.1 mm 6 mps 758 mmHg 93%
    20:00 -9°C° 0.1 mm 6 mps 758 mmHg 93%
    21:00 -9°C° 0.1 mm 6 mps 757 mmHg 93%
    22:00 -8°C° 0.1 mm 5 mps 757 mmHg 93%
    23:00 -7°C° 0.1 mm 5 mps 757 mmHg 93%

    28 January, Monday

    Time Temperature Precipitation Wind Pressure Humidity
    00:00 -7°C° 0.1 mm 5 mps 757 mmHg 93%
    01:00 -7°C° 0.1 mm 5 mps 756 mmHg 93%
    02:00 -7°C° 0.1 mm 5 mps 756 mmHg 94%
    03:00 -7°C° 0.1 mm 5 mps 756 mmHg 94%
    04:00 -7°C° 0.1 mm 5 mps 755 mmHg 94%
    05:00 -8°C° 0.1 mm 5 mps 755 mmHg 95%
    06:00 -8°C° 0.1 mm 5 mps 755 mmHg 95%
    07:00 -8°C° 0.5 mm 5 mps 755 mmHg 95%
    08:00 -10°C° 0.5 mm 5 mps 755 mmHg 95%
    09:00 -10°C° 0.5 mm 5 mps 755 mmHg 96%
    10:00 -9°C° 0.6 mm 4 mps 755 mmHg 96%
    11:00 -8°C° 0.6 mm 4 mps 755 mmHg 96%
    12:00 -7°C° 0.6 mm 3 mps 755 mmHg 96%
    13:00 -7°C° 0.6 mm 3 mps 755 mmHg 96%
    14:00 -7°C° 0.6 mm 3 mps 755 mmHg 96%
    15:00 -6°C° 0.6 mm 2 mps 755 mmHg 96%
    16:00 -6°C° 0.4 mm 2 mps 755 mmHg 96%
    17:00 -6°C° 0.4 mm 2 mps 756 mmHg 96%
    18:00 -6°C° 0.4 mm 2 mps 756 mmHg 96%
    19:00 -6°C° 0.1 mm 2 mps 757 mmHg 96%
    20:00 -8°C° 0.1 mm 3 mps 757 mmHg 96%
    21:00 -8°C° 0.1 mm 3 mps 757 mmHg 95%
    22:00 -9°C° 0 mm 3 mps 758 mmHg 95%
    23:00 -8°C° 0 mm 2 mps 758 mmHg 95%

    29 January, Tuesday

    Time Temperature Precipitation Wind Pressure Humidity
    00:00 -9°C° 0 mm 2 mps 759 mmHg 94%
    01:00 -9°C° 0 mm 2 mps 759 mmHg 94%
    02:00 -9°C° 0 mm 2 mps 760 mmHg 94%
    03:00 -9°C° 0 mm 2 mps 760 mmHg 93%
    04:00 -10°C° 0 mm 2 mps 760 mmHg 93%
    05:00 -10°C° 0 mm 2 mps 761 mmHg 92%
    06:00 -10°C° 0 mm 2 mps 761 mmHg 92%
    07:00 -10°C° 0 mm 2 mps 761 mmHg 92%
    08:00 -9°C° 0 mm 2 mps 762 mmHg 92%
    09:00 -9°C° 0 mm 2 mps 762 mmHg 92%
    10:00 -8°C° 0 mm 2 mps 763 mmHg 91%
    11:00 -6°C° 0 mm 1 mps 763 mmHg 91%
    12:00 -4°C° 0 mm 1 mps 763 mmHg 90%
    13:00 -4°C° 0 mm 1 mps 763 mmHg 91%
    14:00 -4°C° 0 mm 1 mps 763 mmHg 91%
    15:00 -5°C° 0 mm 0 mps 763 mmHg 91%
    16:00 -6°C° 0 mm 0 mps 764 mmHg 92%
    17:00 -8°C° 0 mm 0 mps 764 mmHg 92%
    18:00 -9°C° 0 mm 0 mps 764 mmHg 93%
    19:00 -9°C° 0 mm 1 mps 765 mmHg 92%
    20:00 -9°C° 0 mm 1 mps 765 mmHg 92%
    21:00 -9°C° 0 mm 1 mps 765 mmHg 92%
    22:00 -9°C° 0 mm 1 mps 765 mmHg 92%
    23:00 -10°C° 0 mm 2 mps 765 mmHg 92%
    Show more